Lid_Strength_Index
11 10 10 11 11 11 12 11 14 12 13 11 10 9 9 8 7 6 7 6 6 5 5 4 3 3 2 2 2 1 2 2 2 1 1 1 1 0 0 0 0 0 0 0
13 11 11 12 10 10 10 10 11 12 14 10 8 9 9 9 7 6 7 6 6 5 4 4 3 3 2 2 2 1 2 2 1 1 1 1 1 1 1 0 0 1 1 1
15 11 11 14 11 10 10 9 10 13 11 11 10 9 9 7 6 6 6 6 5 5 4 3 3 2 3 2 1 2 2 2 1 1 1 1 1 1 1 1 1 1 1 1
15 13 19 10 8 9 10 10 9 10 10 11 11 9 8 7 6 5 5 5 5 4 4 3 2 2 2 2 2 2 2 2 2 1 1 1 1 1 1 1 1 1 1 1
16 16 12 11 10 11 12 11 8 8 8 8 9 9 8 6 4 5 5 4 4 3 3 3 2 2 2 2 2 2 2 2 1 1 1 1 1 1 1 1 1 1 1 1
14 17 18 13 9 8 9 15 7 7 8 8 10 12 9 4 4 4 4 3 3 3 3 3 2 2 2 2 2 2 2 2 1 1 1 1 1 1 1 1 1 1 1 1
15 16 13 10 8 7 16 13 8 8 7 8 10 9 5 4 4 4 4 3 3 3 3 3 2 2 2 2 3 2 1 1 1 1 1 1 1 1 1 1 1 1 1 1
15 17 18 9 10 12 9 7 8 7 7 7 6 6 5 5 5 4 4 4 3 3 3 2 2 2 3 3 1 1 1 1 1 1 1 1 1 1 1 1 2 2 2 1
14 14 10 10 12 8 6 7 8 7 6 6 6 6 5 5 5 4 4 4 3 3 3 2 2 2 2 2 1 1 1 2 1 1 1 1 1 1 2 1 2 2 2 2
13 12 13 9 7 8 9 10 7 5 5 5 6 5 5 5 5 4 4 4 3 3 3 3 2 2 1 1 1 1 2 2 2 2 1 1 1 1 1 2 2 2 2 2
11 10 9 8 8 6 6 5 5 5 6 5 5 5 5 5 5 4 4 3 3 3 3 3 2 2 1 1 1 2 2 2 2 1 1 2 1 1 1 0 2 2 2 2
13 8 9 9 6 7 6 7 7 8 7 6 6 6 5 5 5 4 4 3 3 3 3 2 2 2 1 1 1 2 2 2 2 2 2 2 2 2 12 10 10 9 8 4
8 6 7 7 6 7 7 7 7 8 8 7 7 6 5 6 5 6 4 4 4 3 3 3 3 2 1 1 1 1 2 2 2 2 2 2 2 2 3 6 12 12 11 10
6 6 8 8 8 7 8 8 7 8 9 9 8 7 7 6 6 5 6 6 6 6 5 5 5 5 2 1 1 1 1 7 2 2 1 2 2 2 2 2 3 2 10 9
7 7 8 7 8 9 8 8 9 9 10 10 9 8 8 8 8 7 6 7 7 7 7 7 6 5 4 2 1 1 1 1 1 1 1 2 1 1 1 2 2 2 2 8
7 7 7 8 8 10 9 10 10 10 10 10 10 9 9 9 9 8 8 8 9 9 9 7 7 5 4 3 1 1 1 6 5 1 1 1 1 2 2 2 2 2 2 2
8 8 8 9 10 11 11 11 10 10 10 11 10 9 9 9 10 11 10 9 9 10 10 9 8 5 5 3 2 0 1 1 6 1 2 2 2 2 2 2 2 2 2 1
5 6 7 8 9 10 11 10 11 11 10 11 10 10 11 11 12 12 11 10 10 11 11 10 10 7 6 6 3 1 1 1 1 1 1 2 2 1 1 2 2 2 1 2
5 6 6 8 9 10 10 10 11 11 11 11 11 11 11 11 11 11 11 11 12 12 12 11 12 10 7 8 9 1 1 1 1 1 1 4 2 1 2 2 2 1 1 1
5 5 6 7 8 9 10 10 10 10 10 11 11 12 12 12 11 11 11 13 14 13 12 12 10 10 9 8 9 3 2 2 2 2 1 1 1 1 1 5 2 1 1 1
4 5 6 7 8 9 9 9 10 11 11 11 11 12 13 13 13 13 12 13 13 13 13 13 12 11 9 10 8 6 5 4 4 4 3 2 2 2 2 1 1 1 1 1
4 4 5 6 7 8 9 9 10 10 11 11 11 12 12 13 12 13 14 14 13 14 13 13 13 16 12 12 9 8 7 7 7 8 8 7 7 6 7 5 5 4 4 2
4 4 4 5 6 7 8 9 10 10 11 11 11 12 12 12 12 13 14 13 13 14 13 13 15 16 15 11 11 11 10 10 10 10 9 10 10 9 9 9 8 7 8 8
4 4 4 4 5 6 8 9 9 10 10 11 11 11 11 12 12 12 12 13 14 13 13 14 14 15 14 12 13 13 13 12 12 12 12 13 11 11 11 11 11 10 10 10
3 4 4 4 4 6 7 7 8 9 9 10 10 11 11 11 11 11 11 12 14 12 12 14 14 13 12 12 13 13 13 14 14 13 13 13 13 13 12 12 12 12 11 12
3 4 4 3 3 4 6 6 7 8 9 9 10 10 10 10 10 10 11 12 11 12 12 12 12 11 12 12 12 12 13 13 13 13 13 13 13 13 13 13 12 12 12 12
3 5 4 4 4 4 5 6 7 8 8 8 9 9 9 10 10 11 12 11 11 11 12 12 12 13 12 12 12 12 12 13 14 12 12 12 12 12 13 12 12 12 12 12